Find Local Weather

World > North America > United States > New York

Solon Pond, New York Regional Weather

Lat: 42.62N, Lon: 75.92W
Wx Zone: NYZ044
Warning FLW WEATHER ALERT - WINTER STORM WATCH (More Info. Click Here) Warning
Feedback
Expires:201901171300;;490226
ASUS41 KALY 171210
RWRALY

NEW YORK STATE HOURLY WEATHER ROUNDUP
NATIONAL WEATHER SERVICE ALBANY NY
700 AM EST THU JAN 17 2019

NOTE: "FAIR" INDICATES FEW OR NO CLOUDS BELOW 12,000 FEET WITH NO
SIGNIFICANT WEATHER AND/OR NO OBSTRUCTIONS TO VISIBILITY.


NYZ005>009-017-018-044>046-055-056-171300-
CENTRAL

  
CITY           SKY/WX    TMP DP  RH WIND       PRES   REMARKS
FULTON         FAIR       1  -7  68 CALM      30.41R                  
SYRACUSE       FAIR       3  -3  76 E7        30.42R WCI  -9          
ROME           FAIR       2  -3  80 CALM      30.43R                  
ELMIRA         FAIR       8   2  76 CALM      30.35R                  
BINGHAMTON     FAIR       9   5  84 NW5       30.27R WCI   1          
MONTICELLO     FAIR      12   7  80 NW5       30.30R WCI   4          
$$


SKY/WX - Weather  TMP - Temperature  DP - Dew Point  RH - Relative Humidity
WIND - Wind Direction/Speed PRES - Barometric Pressure